When you browse on this site, cookies collect data to enhance your experience and personalize the content and advertising you see.
Visit our Privacy Policy to learn more. By continuing to use the site, you agree to this use of cookies and data.
  • In Sweden
  • List of Countries
  • For 7 days
  • Water Temperature
  • Weather Map
  • Weather Widgets
  • user-avatar
    Login

    Hourly Weather Bangalol

    Today, 31 May, Sunday

    Time Temperature Precipitation Wind Pressure Humidity
    00:00 +28°C° 0.1 mm 1 mps 697 mmHg 71%
    01:00 +27°C° 0.1 mm 1 mps 696 mmHg 75%
    02:00 +26°C° 0.1 mm 1 mps 696 mmHg 79%
    03:00 +26°C° 0 mm 1 mps 696 mmHg 81%
    04:00 +26°C° 0 mm 1 mps 696 mmHg 82%
    05:00 +25°C° 0 mm 1 mps 697 mmHg 91%
    06:00 +26°C° 0 mm 1 mps 697 mmHg 85%
    07:00 +25°C° 0 mm 0 mps 697 mmHg 79%
    08:00 +27°C° 0 mm 0 mps 698 mmHg 73%
    09:00 +30°C° 0 mm 1 mps 698 mmHg 64%
    10:00 +32°C° 0 mm 2 mps 698 mmHg 55%
    11:00 +35°C° 0 mm 3 mps 698 mmHg 47%
    12:00 +36°C° 0 mm 3 mps 698 mmHg 43%
    13:00 +37°C° 0 mm 3 mps 697 mmHg 39%
    14:00 +38°C° 0 mm 4 mps 696 mmHg 36%
    15:00 +37°C° 0 mm 4 mps 696 mmHg 38%
    16:00 +36°C° 0 mm 4 mps 696 mmHg 40%
    17:00 +36°C° 0 mm 4 mps 696 mmHg 42%
    18:00 +33°C° 1.1 mm 5 mps 696 mmHg 54%
    19:00 +30°C° 1.1 mm 5 mps 696 mmHg 65%
    20:00 +27°C° 1.1 mm 6 mps 696 mmHg 77%
    21:00 +27°C° 1.2 mm 5 mps 697 mmHg 78%
    22:00 +26°C° 1.2 mm 4 mps 697 mmHg 80%
    23:00 +26°C° 1.2 mm 3 mps 698 mmHg 82%

    Tomorrow, 1 June, Monday

    Time Temperature Precipitation Wind Pressure Humidity
    00:00 +26°C° 0.8 mm 3 mps 697 mmHg 83%
    01:00 +26°C° 0.8 mm 2 mps 697 mmHg 83%
    02:00 +25°C° 0.8 mm 2 mps 696 mmHg 84%
    03:00 +25°C° 0 mm 2 mps 696 mmHg 84%
    04:00 +25°C° 0 mm 2 mps 697 mmHg 85%
    05:00 +25°C° 0 mm 2 mps 697 mmHg 85%
    06:00 +26°C° 0 mm 2 mps 697 mmHg 82%
    07:00 +26°C° 0 mm 2 mps 698 mmHg 79%
    08:00 +27°C° 0 mm 2 mps 698 mmHg 76%
    09:00 +28°C° 0 mm 2 mps 698 mmHg 71%
    10:00 +30°C° 0 mm 2 mps 698 mmHg 66%
    11:00 +31°C° 0 mm 2 mps 698 mmHg 60%
    12:00 +32°C° 0.1 mm 2 mps 698 mmHg 57%
    13:00 +32°C° 0.1 mm 2 mps 697 mmHg 54%
    14:00 +34°C° 0.1 mm 2 mps 696 mmHg 51%
    15:00 +34°C° 1 mm 2 mps 696 mmHg 52%
    16:00 +32°C° 1 mm 2 mps 696 mmHg 54%
    17:00 +32°C° 1 mm 2 mps 696 mmHg 56%
    18:00 +30°C° 0.5 mm 3 mps 696 mmHg 62%
    19:00 +29°C° 0.5 mm 3 mps 697 mmHg 68%
    20:00 +28°C° 0.5 mm 4 mps 697 mmHg 74%
    21:00 +27°C° 0 mm 4 mps 697 mmHg 76%
    22:00 +26°C° 0 mm 4 mps 697 mmHg 78%
    23:00 +25°C° 0 mm 4 mps 697 mmHg 80%

    Day after tomorrow, 2 June, Tuesday

    Time Temperature Precipitation Wind Pressure Humidity
    00:00 +25°C° 0 mm 3 mps 697 mmHg 81%
    01:00 +25°C° 0 mm 3 mps 696 mmHg 82%
    02:00 +25°C° 0 mm 2 mps 696 mmHg 83%
    03:00 +24°C° 0 mm 2 mps 696 mmHg 84%
    04:00 +24°C° 0 mm 2 mps 696 mmHg 85%
    05:00 +24°C° 0 mm 2 mps 696 mmHg 86%
    06:00 +25°C° 0 mm 2 mps 697 mmHg 81%
    07:00 +26°C° 0 mm 3 mps 697 mmHg 77%
    08:00 +27°C° 0 mm 3 mps 698 mmHg 73%
    09:00 +28°C° 0 mm 4 mps 698 mmHg 68%
    10:00 +30°C° 0 mm 4 mps 698 mmHg 63%
    11:00 +32°C° 0 mm 4 mps 698 mmHg 57%
    12:00 +33°C° 0.3 mm 4 mps 698 mmHg 55%
    13:00 +33°C° 0.3 mm 4 mps 697 mmHg 53%
    14:00 +34°C° 0.3 mm 4 mps 696 mmHg 51%
    15:00 +33°C° 2.5 mm 4 mps 696 mmHg 55%
    16:00 +32°C° 2.5 mm 5 mps 696 mmHg 60%
    17:00 +30°C° 2.5 mm 5 mps 696 mmHg 64%
    18:00 +29°C° 1.8 mm 5 mps 696 mmHg 68%
    19:00 +28°C° 1.8 mm 5 mps 697 mmHg 73%
    20:00 +27°C° 1.8 mm 4 mps 697 mmHg 77%
    21:00 +26°C° 0.4 mm 4 mps 697 mmHg 79%
    22:00 +26°C° 0.4 mm 4 mps 697 mmHg 80%
    23:00 +25°C° 0.4 mm 3 mps 697 mmHg 82%

    3 June, Wednesday

    Time Temperature Precipitation Wind Pressure Humidity
    00:00 +25°C° 0 mm 3 mps 697 mmHg 83%
    01:00 +24°C° 0 mm 3 mps 696 mmHg 84%
    02:00 +24°C° 0 mm 3 mps 696 mmHg 85%
    03:00 +24°C° 0 mm 2 mps 696 mmHg 86%
    04:00 +24°C° 0 mm 2 mps 696 mmHg 86%
    05:00 +24°C° 0 mm 2 mps 696 mmHg 86%
    06:00 +25°C° 0 mm 3 mps 697 mmHg 82%
    07:00 +26°C° 0 mm 3 mps 697 mmHg 78%
    08:00 +27°C° 0 mm 4 mps 698 mmHg 73%
    09:00 +28°C° 0 mm 4 mps 698 mmHg 68%
    10:00 +29°C° 0 mm 5 mps 698 mmHg 64%
    11:00 +32°C° 0 mm 5 mps 698 mmHg 59%
    12:00 +30°C° 1.6 mm 6 mps 698 mmHg 60%
    13:00 +30°C° 1.6 mm 7 mps 697 mmHg 62%
    14:00 +29°C° 1.6 mm 8 mps 697 mmHg 64%
    15:00 +28°C° 0.7 mm 7 mps 697 mmHg 68%
    16:00 +27°C° 0.7 mm 6 mps 696 mmHg 72%
    17:00 +26°C° 0.7 mm 5 mps 696 mmHg 76%
    18:00 +26°C° 0.1 mm 3 mps 697 mmHg 75%
    19:00 +26°C° 0.1 mm 2 mps 697 mmHg 74%
    20:00 +26°C° 0.1 mm 1 mps 697 mmHg 73%
    21:00 +25°C° 0 mm 2 mps 697 mmHg 75%
    22:00 +25°C° 0 mm 2 mps 697 mmHg 76%
    23:00 +24°C° 0 mm 3 mps 697 mmHg 78%

    4 June, Thursday

    Time Temperature Precipitation Wind Pressure Humidity
    00:00 +24°C° 0 mm 3 mps 697 mmHg 80%
    01:00 +24°C° 0 mm 2 mps 697 mmHg 82%
    02:00 +23°C° 0 mm 2 mps 696 mmHg 84%
    03:00 +23°C° 0 mm 2 mps 696 mmHg 85%
    04:00 +23°C° 0 mm 2 mps 696 mmHg 86%
    05:00 +23°C° 0 mm 1 mps 696 mmHg 87%
    06:00 +24°C° 0 mm 2 mps 697 mmHg 84%
    07:00 +25°C° 0 mm 2 mps 697 mmHg 80%
    08:00 +26°C° 0 mm 3 mps 698 mmHg 77%
    09:00 +27°C° 0 mm 3 mps 698 mmHg 70%
    10:00 +29°C° 0 mm 4 mps 698 mmHg 64%
    11:00 +30°C° 0 mm 4 mps 698 mmHg 58%
    12:00 +32°C° 0 mm 4 mps 697 mmHg 55%
    13:00 +33°C° 0 mm 4 mps 697 mmHg 51%
    14:00 +33°C° 0 mm 4 mps 696 mmHg 48%
    15:00 +33°C° 0.1 mm 4 mps 696 mmHg 51%
    16:00 +32°C° 0.1 mm 4 mps 696 mmHg 54%
    17:00 +32°C° 0.1 mm 4 mps 696 mmHg 56%
    18:00 +29°C° 0.6 mm 4 mps 696 mmHg 62%
    19:00 +28°C° 0.6 mm 4 mps 697 mmHg 68%
    20:00 +27°C° 0.6 mm 3 mps 697 mmHg 74%
    21:00 +26°C° 0.1 mm 3 mps 697 mmHg 77%
    22:00 +26°C° 0.1 mm 3 mps 697 mmHg 80%
    23:00 +25°C° 0.1 mm 3 mps 698 mmHg 83%

    5 June, Friday

    Time Temperature Precipitation Wind Pressure Humidity
    00:00 +25°C° 0 mm 2 mps 697 mmHg 84%
    01:00 +24°C° 0 mm 2 mps 696 mmHg 86%
    02:00 +24°C° 0 mm 2 mps 696 mmHg 87%
    03:00 +24°C° 0.1 mm 1 mps 696 mmHg 88%
    04:00 +24°C° 0.1 mm 1 mps 696 mmHg 89%
    05:00 +23°C° 0.1 mm 1 mps 696 mmHg 89%
    06:00 +24°C° 0 mm 2 mps 697 mmHg 84%
    07:00 +25°C° 0 mm 2 mps 697 mmHg 78%
    08:00 +27°C° 0 mm 3 mps 698 mmHg 72%
    09:00 +28°C° 0 mm 3 mps 698 mmHg 66%
    10:00 +30°C° 0 mm 3 mps 698 mmHg 59%
    11:00 +31°C° 0 mm 3 mps 698 mmHg 53%
    12:00 +33°C° 0 mm 3 mps 697 mmHg 50%
    13:00 +34°C° 0 mm 3 mps 697 mmHg 48%
    14:00 +34°C° 0 mm 3 mps 696 mmHg 46%
    15:00 +34°C° 0 mm 3 mps 696 mmHg 47%
    16:00 +33°C° 0 mm 3 mps 696 mmHg 49%
    17:00 +33°C° 0 mm 3 mps 696 mmHg 51%
    18:00 +30°C° 1.4 mm 3 mps 696 mmHg 58%
    19:00 +29°C° 1.4 mm 4 mps 697 mmHg 65%
    20:00 +27°C° 1.4 mm 4 mps 697 mmHg 72%
    21:00 +27°C° 0.4 mm 4 mps 697 mmHg 75%
    22:00 +26°C° 0.4 mm 3 mps 697 mmHg 78%
    23:00 +26°C° 0.4 mm 2 mps 697 mmHg 81%
    Show more